Simultaneous Nadir Overpasses (SNOs) Predictions

Prediction of SNOs between GOES-14 and AQUA Satellite Orbit:

Table of predicted SNOs for the next 14.0 days since TLE Epoch: 5/11/2024
Index Date Time (GOES-14) GOES-14 Lat,Lon AQUA Lat,Lon Distance(km) Time Diff (sec)
1 05/11/2024 21:15:46 -0.11,-108.67 0.33,-106.68 227.24 80
2 05/12/2024 09:33:17 0.09,-108.69 0.73,-111.56 327.34 80
3 05/14/2024 09:19:35 0.10,-108.69 -0.12,-107.56 128.62 80
4 05/14/2024 21:37:14 -0.08,-108.68 -0.91,-112.48 432.38 80
5 05/16/2024 21:23:27 -0.09,-108.69 -0.07,-108.45 26.50 80
6 05/18/2024 21:06:57 -0.10,-108.70 0.81,-104.42 486.84 80
7 05/19/2024 09:24:29 0.08,-108.72 0.17,-109.31 65.50 77
8 05/21/2024 09:10:31 0.08,-108.73 -0.68,-105.25 396.68 80
9 05/21/2024 21:28:06 -0.06,-108.71 -0.38,-110.15 163.54 80
10 05/23/2024 21:14:07 -0.06,-108.72 0.52,-106.08 300.31 80
11 05/24/2024 09:31:33 0.04,-108.74 0.50,-110.95 250.27 80
